Date String (YYYY-MM-DD hh:mm:ss) UTC,Instrument flags,Ambient pressure (hPa),Sample flow (lpm),Bypass flow (lpm),Sample temperature (°C),Ambient temperature (°C),ASC tube jacket temperature (°C),LED temperature (°C),Box temperature (°C),Sample RH (%),Span deviation,Mass concentration (μg/m³),Mass concentration (μg/m³),Mass concentration (μg/m³)
DateTimeUTC,F1_M11,P_M11,Q1_M11,Q2_M11,T1_M11,T2_M11,T3_M11,T4_M11,T5_M11,U1_M11,ZSPAN_M11,X0_M11,X2_M11,X1_M11
2022-12-28 05:00:00,,0807.2,5.00,0.00,24.8,23.5,00.0,33.7,26.6,15.4,0000.0,0000.51,0000.30,0000.20
2022-12-28 05:01:00,,0807.3,5.01,0.00,24.8,23.5,00.0,33.7,26.6,15.2,0000.0,0000.48,0000.29,0000.19
2022-12-28 05:02:00,,0807.3,5.00,0.00,24.8,23.5,00.0,33.7,26.6,15.2,0000.0,0000.46,0000.27,0000.17
2022-12-28 05:03:00,,0807.2,5.00,0.00,24.8,23.5,00.0,33.7,26.6,15.1,0000.0,0000.48,0000.24,0000.17
2022-12-28 05:04:00,,0807.3,5.00,0.00,24.8,23.4,00.0,33.7,26.6,15.0,0000.0,0000.46,0000.22,0000.15
2022-12-28 05:05:00,,0807.2,4.99,0.00,24.8,23.4,00.0,33.7,26.5,15.1,0000.0,0000.60,0000.22,0000.14
2022-12-28 05:06:00,,0807.2,5.00,0.00,24.8,23.4,00.0,33.7,26.5,15.1,0000.0,0000.56,0000.21,0000.13
2022-12-28 05:07:00,,0807.2,5.00,0.00,24.8,23.4,00.0,33.7,26.5,14.9,0000.0,0000.54,0000.20,0000.13
2022-12-28 05:08:00,,0807.2,5.01,0.00,24.7,23.4,00.0,33.7,26.5,14.8,0000.0,0000.59,0000.20,0000.12
2022-12-28 05:09:00,,0807.3,5.00,0.00,24.7,23.3,00.0,33.7,26.5,15.0,0000.0,0000.65,0000.19,0000.11
2022-12-28 05:10:00,,0807.2,5.00,0.00,24.7,23.3,00.0,33.7,26.5,15.1,0000.0,0000.58,0000.17,0000.10
2022-12-28 05:11:00,,0807.2,5.00,0.00,24.7,23.3,00.0,33.7,26.4,14.8,0000.0,0000.57,0000.16,0000.09
2022-12-28 05:12:00,,0807.2,5.00,0.00,24.7,23.2,00.0,33.7,26.4,14.9,0000.0,0000.60,0000.16,0000.09
2022-12-28 05:13:00,,0807.1,5.00,0.00,24.7,23.3,00.0,33.7,26.4,14.9,0000.0,0000.65,0000.17,0000.08
2022-12-28 05:14:00,,0807.1,5.00,0.00,24.7,23.3,00.0,33.7,26.4,14.9,0000.0,0000.55,0000.14,0000.07
2022-12-28 05:15:00,,0807.1,5.00,0.00,24.7,23.4,00.0,33.7,26.4,14.8,0000.0,0000.46,0000.13,0000.07
2022-12-28 05:16:00,,0807.1,5.01,0.00,24.7,23.5,00.0,33.7,26.4,14.8,0000.0,0000.32,0000.11,0000.06
2022-12-28 05:17:00,,0807.1,4.99,0.00,24.7,23.5,00.0,33.7,26.5,14.8,0000.0,0000.31,0000.10,0000.06
2022-12-28 05:18:00,,0807.1,4.99,0.00,24.7,23.4,00.0,33.7,26.5,14.8,0000.0,0000.31,0000.10,0000.06
2022-12-28 05:19:00,,0807.3,4.99,0.00,24.7,23.4,00.0,33.7,26.5,14.8,0000.0,0000.35,0000.10,0000.06
2022-12-28 05:20:00,,0807.3,5.00,0.00,24.7,23.4,00.0,33.7,26.5,14.8,0000.0,0000.35,0000.10,0000.06
2022-12-28 05:21:00,,0807.2,5.01,0.00,24.7,23.4,00.0,33.7,26.6,14.7,0000.0,0000.39,0000.10,0000.05
2022-12-28 05:22:00,,0807.2,5.01,0.00,24.7,23.3,00.0,33.7,26.5,14.6,0000.0,0000.40,0000.11,0000.05
2022-12-28 05:23:00,,0807.3,5.00,0.00,24.7,23.3,00.0,33.7,26.5,14.5,0000.0,0000.40,0000.11,0000.05
2022-12-28 05:24:00,,0807.4,5.00,0.00,24.7,23.3,00.0,33.7,26.5,14.5,0000.0,0000.31,0000.08,0000.05
2022-12-28 05:25:00,,0807.5,5.00,0.00,24.7,23.2,00.0,33.7,26.4,14.6,0000.0,0000.30,0000.08,0000.05
2022-12-28 05:26:00,,0807.5,5.00,0.00,24.7,23.2,00.0,33.7,26.5,14.7,0000.0,0000.30,0000.08,0000.05
2022-12-28 05:27:00,,0807.4,5.00,0.00,24.7,23.3,00.0,33.6,26.5,14.7,0000.0,0000.30,0000.07,0000.04
2022-12-28 05:28:00,,0807.4,5.00,0.00,24.7,23.4,00.0,33.6,26.6,14.8,0000.0,0000.37,0000.09,0000.04
2022-12-28 05:29:00,,0807.4,5.00,0.00,24.7,23.5,00.0,33.6,26.6,14.8,0000.0,0000.41,0000.11,0000.05
2022-12-28 05:30:00,,0807.4,5.00,0.00,24.8,23.6,00.0,33.7,26.6,14.9,0000.0,0000.31,0000.10,0000.05
2022-12-28 05:31:00,,0807.4,5.01,0.00,24.8,23.6,00.0,33.7,26.6,15.0,0000.0,0000.24,0000.10,0000.05
2022-12-28 05:32:00,,0807.4,5.00,0.00,24.8,23.6,00.0,33.7,26.6,15.1,0000.0,0000.24,0000.10,0000.04
2022-12-28 05:33:00,,0807.4,5.00,0.00,24.8,23.5,00.0,33.7,26.6,14.8,0000.0,0000.26,0000.11,0000.04
2022-12-28 05:34:00,,0807.4,5.00,0.00,24.8,23.5,00.0,33.7,26.6,14.7,0000.0,0000.23,0000.10,0000.04
2022-12-28 05:35:00,,0807.4,5.00,0.00,24.8,23.5,00.0,33.7,26.6,14.6,0000.0,0000.23,0000.11,0000.04
2022-12-28 05:36:00,,0807.4,5.00,0.00,24.8,23.6,00.0,33.7,26.6,14.6,0000.0,0000.23,0000.11,0000.04
2022-12-28 05:37:00,,0807.5,5.01,0.00,24.8,23.6,00.0,33.7,26.6,14.6,0000.0,0000.24,0000.11,0000.05
2022-12-28 05:38:00,,0807.5,5.00,0.00,24.8,23.6,00.0,33.7,26.6,14.5,0000.0,0000.25,0000.11,0000.05
2022-12-28 05:39:00,,0807.5,5.00,0.00,24.8,23.6,00.0,33.7,26.6,14.7,0000.0,0000.19,0000.10,0000.05
2022-12-28 05:40:00,,0807.5,5.00,0.00,24.8,23.6,00.0,33.7,26.6,14.8,0000.0,0000.17,0000.09,0000.04
2022-12-28 05:41:00,,0807.4,5.00,0.00,24.9,23.6,00.0,33.7,26.6,14.8,0000.0,0000.17,0000.09,0000.04
2022-12-28 05:42:00,,0807.4,5.00,0.00,24.9,23.7,00.0,33.7,26.6,14.5,0000.0,0000.20,0000.10,0000.04
2022-12-28 05:43:00,,0807.4,5.00,0.00,24.9,23.7,00.0,33.7,26.6,14.5,0000.0,0000.18,0000.09,0000.04
2022-12-28 05:44:00,,0807.5,5.00,0.00,24.9,23.7,00.0,33.7,26.6,14.7,0000.0,0000.19,0000.09,0000.05
2022-12-28 05:45:00,,0807.4,4.99,0.00,24.9,23.7,00.0,33.7,26.6,14.5,0000.0,0000.20,0000.10,0000.05
2022-12-28 05:46:00,,0807.4,4.99,0.00,24.9,23.7,00.0,33.7,26.6,14.5,0000.0,0000.22,0000.10,0000.05
2022-12-28 05:47:00,,0807.3,5.00,0.00,24.9,23.7,00.0,33.8,26.7,14.5,0000.0,0000.32,0000.12,0000.05
2022-12-28 05:48:00,,0807.4,5.00,0.00,24.9,23.7,00.0,33.8,26.7,14.8,0000.0,0000.66,0000.12,0000.05
2022-12-28 05:49:00,,0807.4,5.01,0.00,24.9,23.6,00.0,33.8,26.7,14.4,0000.0,0000.67,0000.12,0000.05
2022-12-28 05:50:00,,0807.4,5.00,0.00,24.9,23.6,00.0,33.8,26.7,14.3,0000.0,0000.74,0000.13,0000.05
2022-12-28 05:51:00,,0807.4,5.01,0.00,24.9,23.6,00.0,33.8,26.7,14.4,0000.0,0000.98,0000.12,0000.05
2022-12-28 05:52:00,,0807.4,5.01,0.00,24.9,23.6,00.0,33.8,26.7,14.5,0000.0,0000.98,0000.12,0000.05
2022-12-28 05:53:00,,0807.4,5.01,0.00,24.9,23.6,00.0,33.8,26.7,14.7,0000.0,0000.95,0000.11,0000.05
2022-12-28 05:54:00,,0807.4,5.01,0.00,24.9,23.6,00.0,33.8,26.7,14.7,0000.0,0000.94,0000.10,0000.05
2022-12-28 05:55:00,,0807.4,5.00,0.00,24.9,23.6,00.0,33.8,26.6,14.5,0000.0,0000.90,0000.09,0000.05
2022-12-28 05:56:00,,0807.4,5.00,0.00,24.9,23.6,00.0,33.8,26.6,14.7,0000.0,0000.89,0000.09,0000.05
2022-12-28 05:57:00,,0807.3,5.00,0.00,24.9,23.6,00.0,33.8,26.6,14.7,0000.0,0000.88,0000.08,0000.05
2022-12-28 05:58:00,,0807.3,5.00,0.00,24.9,23.6,00.0,33.8,26.6,14.5,0000.0,0000.78,0000.07,0000.05
2022-12-28 05:59:00,,0807.2,5.00,0.00,24.9,23.6,00.0,33.8,26.6,14.6,0000.0,0000.44,0000.07,0000.05
